Location: Unspecified
(49.2170°N, 0.0000°E)
Time: 01:04:13
(UTC+00:00)

Explorer 7 - Pass Details

Date: 23 January 2021
Orbit: 484 x 677 km, 50.3° (Epoch: 06 March)

Event Time Altitude Azimuth Distance (km) Brightness Sun altitude
Exits shadow 06:06:13 21° 239° (WSW) 1,189 8.1 -15.5°
Maximum altitude 06:08:43 70° 160° (SSE) 562 6.9 -15.1°
Drops below altitude 10° 06:12:49 10° 77° (ENE) 1,820 10.5 -14.4°
Sets 06:15:09 0° 75° (ENE) 2,751 11.5 -14.0°
